Flag for Spain Weather past 2 weeks in Málaga, Spain

Now
64 °F

Clear.


Feels Like: 64 °F
Forecast: 51 / 60 °F
Wind: 14 mph from West

Location: Malaga / Aeropuerto

Current Time: Mar 4, 2015 at 6:17:57 AM

Latest Report: Mar 4, 2015 at 5:30 AM


Visibility: 10 mi

Pressure: 30.21 "Hg

Humidity: 68%

Dew point: 54 °F

Location of MálagaLocation

Historic Weather in Málaga — Graph

°F

Málaga temperature yesterday

Maximum temperature yesterday: 68 °F (at 9:30 PM)
Minimum temperature yesterday: 50 °F (at 6:30 AM)
Average temperature yesterday: 60 °F

Past Weeks' High & Low Weather Summary

 TemperatureHumidityPressure
High73 °F (Feb 26, 1:00 PM)100% (Feb 18, 2:00 AM)30.45 "Hg (Feb 18, 2:00 AM)
Low41 °F (Feb 20, 6:00 AM)32% (Feb 25, 2:30 PM)29.80 "Hg (Feb 21, 3:00 PM)
Average58 °F64%30.19 "Hg
* Reported Feb 17 5:00 AM — Mar 4 5:00 AM, Málaga, Weather by CustomWeather, © 2015

Note: Actual official high and low records may vary slightly from our data, if they occured in-between our weather recording intervals... More about our weather records

Advertising

Málaga weather history for previous 24 hours

 ConditionsComfort  
Time TempWeatherWind HumidityBarometerVisibility
5:00 AM
Wed, Mar 4
64 °FPassing clouds.13 mph68%30.21 "HgN/A
4:30 AM64 °FClear.14 mph68%30.21 "Hg10 mi
4:00 AM64 °FPassing clouds.14 mph68%30.21 "HgN/A
3:30 AM64 °FPassing clouds.15 mph68%30.21 "HgN/A
3:00 AM64 °FClear.15 mph68%30.21 "Hg10 mi
2:30 AM66 °FClear.15 mph64%30.21 "Hg10 mi
2:00 AM66 °FPassing clouds.16 mph68%30.21 "HgN/A
1:30 AM66 °FClear.17 mph68%30.21 "Hg10 mi
1:00 AM66 °FClear.16 mph64%30.24 "Hg10 mi
12:30 AM66 °FClear.15 mph68%30.24 "Hg10 mi
12:00 AM66 °FClear.14 mph68%30.24 "Hg10 mi
11:30 PM
Tue, Mar 3
66 °FClear.13 mph68%30.24 "Hg10 mi
11:00 PM68 °FPassing clouds.12 mph64%30.24 "HgN/A
10:30 PM68 °FClear.14 mph64%30.24 "Hg10 mi
10:00 PM68 °FClear.14 mph64%30.21 "Hg10 mi
9:30 PM68 °FClear.12 mph60%30.21 "Hg10 mi
9:00 PM64 °FClear.9 mph73%30.21 "Hg10 mi
8:30 PM61 °FClear.No wind88%30.21 "Hg10 mi
8:00 PM61 °FClear.No wind88%30.21 "Hg10 mi
7:30 PM61 °FClear.No wind88%30.18 "Hg10 mi
7:00 PM63 °FSunny.1 mph83%30.18 "Hg10 mi
6:30 PM64 °FSunny.1 mph78%30.18 "Hg10 mi
6:00 PM66 °FPassing clouds.1 mph73%30.18 "HgN/A
5:30 PM66 °FPassing clouds.3 mph73%30.18 "HgN/A
5:00 PM66 °FPassing clouds.5 mph73%30.18 "HgN/A
4:30 PM66 °FPassing clouds.6 mph73%30.18 "HgN/A
4:00 PM66 °FPassing clouds.5 mph73%30.18 "HgN/A
3:30 PM66 °FPassing clouds.6 mph73%30.18 "HgN/A
3:00 PM64 °FPassing clouds.7 mph78%30.18 "HgN/A
2:30 PM63 °FPassing clouds.8 mph83%30.21 "HgN/A
2:00 PM63 °FPassing clouds.8 mph83%30.21 "HgN/A
1:30 PM64 °FPassing clouds.8 mph78%30.21 "HgN/A
1:00 PM64 °FPassing clouds.9 mph73%30.24 "HgN/A
12:30 PM66 °FPassing clouds.8 mph64%30.24 "HgN/A
12:00 PM66 °FPassing clouds.9 mph68%30.24 "HgN/A
11:30 AM64 °FSunny.8 mph73%30.24 "Hg10 mi
11:00 AM64 °FPassing clouds.3 mph73%30.24 "HgN/A
10:30 AM64 °FSunny.2 mph73%30.24 "Hg10 mi
10:00 AM61 °FSunny.6 mph77%30.24 "Hg10 mi
9:30 AM57 °FPassing clouds.6 mph88%30.24 "HgN/A
9:00 AM54 °FSunny.8 mph94%30.24 "Hg10 mi
8:30 AM52 °FPassing clouds.6 mph94%30.21 "HgN/A
8:00 AM52 °FPassing clouds.5 mph94%30.21 "HgN/A
7:30 AM52 °FClear.5 mph94%30.21 "Hg10 mi
7:00 AM50 °FClear.2 mph94%30.21 "Hg10 mi
6:30 AM50 °FClear.3 mph100%30.18 "Hg10 mi
6:00 AM52 °FClear.2 mph94%30.18 "Hg10 mi
Weather by CustomWeather, © 2015

See weather overviewHow to use our weather pages